Regional Weather Roundup
Issued by NWS Goodland, KS

Home | Current Version | Previous Version | Graphics & Text | Print | Product List | Glossary On
Versions: 1 2 3 4 5 6 7 8 9 10 11 12 13 14 15 16 17 18 19 20 21 22 23 24 25 26 27 28 29 30 31 32 33 34 35 36 37 38 39 40 41 42 43 44 45 46 47 48 49 50
000
ASUS43 KGLD 231059
RWRGLD

GOODLAND FORECAST AREA HOURLY WEATHER ROUNDUP
NATIONAL WEATHER SERVICE GOODLAND KS
500 AM MDT FRI JUN 23 2017

...OFFICIAL OBSERVATIONS...

CITY           SKY/WX    TMP DP  RH WIND       PRES   REMARKS
GOODLAND KS    CLOUDY    60  48  64 NE15      30.05R
HILL CITY KS   CLOUDY    66  54  65 N25G38    30.00R
IMPERIAL NEB   CLOUDY    58  55  90 N10       30.12R
MCCOOK NEB     CLOUDY    59  54  83 N18G30    30.02F
AKRON CO       RAIN      54  51  90 N9        30.18R FOG
BURLINGTON CO  CLOUDY    59  48  67 NE10      30.08R
LIMON CO       CLOUDY    59  52  77 NE10      30.17R
$$

...UNOFFICIAL OBSERVATIONS...

CITY           SKY/WX    TMP DP  RH WIND       PRES   REMARKS
LENORA KS        N/A     61  32  33 MISG        N/A
NORTON KS      LGT RAIN  59  50  72 NW12      30.03R
SHARON SPRINGS   N/A     61  52  72 NE12G20     N/A
TRENTON NEB      N/A     57  32  39 N9          N/A
KIT CARSON CO    N/A     58  49  71 MISG        N/A
$$



USA.gov is the U.S. government's official web portal to all federal, state and local government web resources and services.